Overview Statistics Trail Chart Weather Telemetry Raw packets
 

This is the latest recevied weather packets stored in our database for station/object N4DWK. If no packets are shown the sender has not sent any weather packets the latest 10 day(s).

<< 80 81 82 83 84 85 86 >>
Time Temp. Humidity Pressure Rain* Wind** Luminosity Snow
1788035409 27.78° C 73% 1021.9 hPa 0 mm - 93 W/m² -
1788035110 28.33° C 74% 1021.9 hPa 0 mm - 83 W/m² -
1788034809 27.78° C 75% 1022 hPa 0 mm - 250 W/m² -
1788034513 27.78° C 75% 1022.1 hPa 0 mm - 155 W/m² -
1788034209 27.22° C 76% 1022.2 hPa 0 mm - 91 W/m² -
1788033909 27.22° C 75% 1022.2 hPa 0 mm - 250 W/m² -
1788033609 27.22° C 75% 1022.2 hPa 0 mm - 69 W/m² -
1788033310 27.78° C 75% 1022.2 hPa 0 mm - 51 W/m² -
1788033009 27.78° C 74% 1022.2 hPa 0 mm - 63 W/m² -
1788032710 27.78° C 74% 1022.3 hPa 0 mm - 65 W/m² -
1788032410 27.78° C 74% 1022.3 hPa 0 mm - 86 W/m² -
1788032109 27.78° C 74% 1022.3 hPa 0 mm - 120 W/m² -
1788031822 28.33° C 74% 1022.3 hPa 0 mm - 90 W/m² -
1788031509 28.33° C 73% 1022.3 hPa 0 mm - 100 W/m² -
1788031209 28.33° C 72% 1022.4 hPa 0 mm - 153 W/m² -
1788030909 28.89° C 72% 1022.5 hPa 0 mm - 132 W/m² -
1788030609 28.89° C 71% 1022.6 hPa 0 mm - 448 W/m² -
1788030309 28.89° C 72% 1022.6 hPa 0 mm - 478 W/m² -
1788030010 29.44° C 72% 1022.6 hPa 0 mm - 209 W/m² -
1788029709 28.89° C 74% 1022.7 hPa 0 mm - 475 W/m² -
1788029410 28.89° C 72% 1022.8 hPa 0 mm - 162 W/m² -
1788029109 29.44° C 71% 1022.9 hPa 0 mm - 144 W/m² -
1788028809 29.44° C 72% 1023 hPa 0 mm - 388 W/m² -
1788028509 29.44° C 74% 1022.9 hPa 0 mm - 438 W/m² -
1788028211 29.44° C 72% 1023 hPa 0 mm - 397 W/m² -

* Rain latest hour (hover to see other rain measurements)
** Current wind speed in m/s (hover to see current wind gust speed)